sat.trackr.live / text

‹ back to catalog

HULIANWANG DIGUI-98

NORAD 66414 · 2025-258C

PAYLOAD ACTIVE UNKNOWN

§ Identity

Operator
Country
PRC
Launch date
2025-11-10
Launch site
WSC
Launch vehicle
Mass (kg)
RCS (m²)

External: N2YO · Heavens-Above · Gunter

§ Orbital elements

Epoch: 2026-05-25T01:48:19.922112Z

Period
108.33 min
Inclination
50.0066°
Eccentricity
0.0001157
Mean motion
13.29319547 rev/d
Perigee alt
1,148.5 km
Apogee alt
1,150.2 km
Semi-major
7,527.5 km
B*
9.6486e-5
RAAN
18.7560°
Arg perigee
56.4778°
Mean anomaly
303.6205°
Rev number
2,665

§ Raw data

HULIANWANG DIGUI-981 66414U 25258C   26145.07523058 -.00000079  00000+0  96486-4 0  99942 66414  50.0066  18.7560 0001157  56.4778 303.6205 13.29319547 26650

JSON: /api/v1/satellites/66414 · /tle

For live sub-satellite position, see the globe view (requires WebGL).

§ Visibility from observer

Set your observer location to see the next 7 days of passes ≥ 10°. The values pass through the URL so the page stays shareable.

No JS? Fill the form by hand. The geolocation button needs JavaScript.